Location: Harwich
(41.7160°N, 69.9939°W)
Time: 13:41:47
(UTC+01:00)

A-11 Canister half - Pass Details

Date: 02 December 2023
Orbit: 1526 x 1682 km, 47.3° (Epoch: 01 March)

Event Time Altitude Azimuth Distance (km) Brightness Sun altitude
Rises 08:42:50 0° 297° (WNW) 4,868 - -45.1°
Reaches altitude 10° 08:46:15 10° 290° (WNW) 3,858 - -44.5°
Maximum altitude 08:54:59 38° 226° (SW) 2,246 - -42.9°
Exits shadow 09:01:28 17° 169° (S) 3,202 10.6 -41.7°
Drops below altitude 10° 09:03:28 10° 162° (SSE) 3,735 11.1 -41.3°
Sets 09:06:45 0° 155° (SSE) 4,698 11.7 -40.7°
